Temp
-12 -12 -12 -12 -11 -11 -11 -11 -11 -11 -11 -11 -11 -11 -11 -11 -11 -11 -11 -12 -12 -12 -12 -12 -12 -12 -12 -12 -12 -12 -12 -12 -12 -12 -13 -14 -14 -15 -16 -17 -17 -18 -18 -19 -18 -18 -19
-12 -12 -12 -12 -12 -12 -11 -11 -11 -11 -11 -11 -11 -11 -11 -11 -11 -11 -11 -12 -12 -12 -12 -12 -12 -12 -12 -12 -12 -12 -12 -12 -12 -13 -13 -14 -14 -15 -16 -17 -18 -18 -18 -18 -19 -19 -19
-12 -12 -12 -12 -12 -12 -12 -12 -11 -11 -11 -11 -11 -11 -11 -11 -12 -12 -12 -12 -12 -12 -12 -12 -12 -12 -13 -13 -13 -13 -13 -12 -13 -13 -13 -14 -15 -16 -17 -17 -18 -18 -19 -19 -19 -19 -19
-12 -13 -13 -12 -12 -12 -12 -12 -12 -12 -11 -12 -12 -11 -11 -12 -12 -12 -12 -12 -12 -12 -12 -13 -13 -13 -13 -13 -13 -13 -13 -13 -13 -13 -14 -14 -15 -16 -16 -17 -18 -18 -18 -18 -19 -19 -18
-13 -13 -13 -13 -13 -13 -12 -12 -12 -12 -12 -12 -12 -12 -12 -12 -12 -12 -12 -12 -12 -12 -13 -13 -13 -13 -13 -13 -13 -13 -13 -14 -14 -14 -14 -14 -15 -16 -16 -17 -17 -17 -18 -18 -18 -18 -18
-13 -13 -13 -13 -13 -13 -13 -13 -13 -12 -12 -12 -13 -12 -12 -12 -12 -12 -12 -12 -12 -13 -13 -13 -13 -13 -14 -14 -14 -13 -14 -14 -14 -15 -14 -15 -15 -15 -16 -16 -17 -17 -18 -18 -18 -18 -19
-13 -14 -14 -14 -14 -14 -13 -13 -13 -13 -13 -13 -13 -13 -13 -13 -13 -13 -13 -13 -13 -13 -13 -13 -13 -14 -14 -14 -14 -14 -14 -14 -14 -15 -15 -15 -15 -15 -16 -17 -17 -17 -18 -18 -18 -18 -19
-14 -14 -14 -14 -14 -14 -14 -14 -14 -13 -13 -13 -13 -13 -13 -13 -13 -13 -13 -13 -13 -13 -13 -13 -14 -14 -14 -14 -14 -14 -14 -15 -15 -15 -15 -15 -15 -15 -16 -16 -17 -17 -17 -18 -19 -18 -19
-14 -14 -14 -15 -14 -14 -14 -14 -14 -14 -14 -14 -14 -14 -14 -14 -14 -14 -14 -14 -14 -14 -14 -14 -14 -14 -14 -14 -14 -15 -15 -15 -15 -15 -15 -15 -16 -16 -16 -16 -16 -17 -17 -17 -18 -18 -19
-14 -15 -15 -15 -15 -15 -15 -15 -15 -15 -14 -14 -14 -14 -14 -14 -14 -14 -14 -14 -14 -14 -14 -14 -14 -14 -15 -15 -15 -15 -15 -15 -15 -15 -15 -15 -16 -16 -16 -16 -16 -16 -17 -17 -17 -18 -18
-15 -14 -15 -15 -15 -15 -15 -15 -15 -15 -15 -15 -15 -15 -15 -15 -15 -15 -14 -14 -14 -14 -14 -14 -15 -15 -15 -15 -15 -15 -15 -16 -16 -16 -16 -16 -16 -16 -16 -16 -16 -16 -16 -17 -17 -17 -18
-15 -15 -15 -15 -16 -17 -16 -16 -15 -16 -15 -15 -15 -15 -15 -15 -15 -15 -15 -15 -15 -15 -15 -15 -15 -15 -15 -15 -15 -16 -16 -16 -16 -16 -16 -16 -16 -16 -16 -16 -16 -16 -16 -16 -16 -17 -17
-15 -15 -15 -15 -16 -17 -17 -17 -16 -16 -16 -16 -15 -15 -15 -15 -15 -15 -15 -15 -15 -15 -15 -15 -15 -15 -16 -16 -16 -16 -16 -16 -16 -16 -16 -16 -16 -16 -16 -16 -16 -16 -16 -16 -16 -16 -17
-15 -15 -15 -15 -16 -16 -16 -18 -17 -17 -17 -16 -16 -16 -16 -16 -16 -16 -16 -16 -16 -16 -16 -16 -16 -16 -16 -16 -16 -16 -16 -16 -16 -16 -16 -16 -16 -16 -16 -16 -16 -16 -16 -16 -16 -16 -17
-15 -15 -15 -15 -16 -16 -16 -16 -17 -17 -17 -18 -17 -17 -17 -17 -16 -16 -16 -16 -16 -16 -16 -16 -16 -16 -16 -16 -16 -16 -16 -16 -16 -16 -16 -16 -17 -17 -16 -16 -16 -16 -16 -16 -16 -16 -16
-15 -15 -15 -15 -15 -15 -15 -16 -16 -17 -17 -17 -17 -17 -17 -17 -17 -17 -16 -16 -16 -16 -16 -16 -16 -16 -16 -16 -16 -17 -17 -17 -17 -17 -17 -17 -16 -17 -17 -17 -17 -17 -16 -16 -16 -16 -16
-15 -15 -15 -15 -15 -15 -15 -15 -16 -16 -17 -17 -17 -17 -17 -17 -17 -17 -17 -17 -17 -17 -17 -17 -17 -17 -17 -17 -17 -17 -17 -17 -17 -17 -17 -17 -17 -17 -17 -17 -17 -17 -16 -16 -16 -17 -16
-16 -15 -15 -16 -16 -16 -16 -16 -16 -16 -16 -17 -16 -16 -16 -16 -17 -16 -17 -17 -17 -18 -17 -17 -17 -17 -17 -18 -18 -18 -18 -18 -18 -18 -17 -17 -17 -17 -17 -18 -17 -17 -17 -16 -16 -17 -17
-16 -16 -16 -16 -16 -16 -16 -16 -16 -16 -17 -17 -16 -16 -16 -16 -16 -16 -16 -17 -17 -17 -17 -17 -17 -18 -17 -17 -18 -18 -18 -18 -18 -18 -18 -18 -17 -17 -17 -17 -17 -18 -17 -17 -16 -16 -17
-17 -17 -17 -17 -17 -17 -17 -17 -17 -17 -17 -17 -17 -16 -16 -16 -16 -16 -16 -16 -16 -16 -17 -17 -17 -17 -18 -18 -18 -17 -18 -18 -18 -18 -18 -18 -18 -18 -18 -18 -18 -18 -18 -17 -16 -16 -15
-17 -18 -18 -18 -18 -18 -18 -18 -17 -17 -17 -17 -17 -17 -16 -17 -17 -17 -17 -17 -17 -17 -17 -17 -17 -17 -18 -17 -18 -18 -18 -18 -18 -18 -18 -17 -17 -18 -18 -18 -18 -18 -18 -18 -17 -17 -16
-18 -19 -20 -20 -20 -19 -19 -19 -19 -19 -18 -18 -18 -18 -18 -18 -18 -18 -17 -17 -17 -17 -17 -17 -17 -17 -17 -17 -18 -18 -18 -17 -17 -17 -18 -18 -17 -17 -18 -18 -18 -18 -18 -18 -18 -17 -16
-20 -20 -20 -20 -20 -20 -20 -20 -20 -20 -20 -19 -19 -19 -18 -18 -18 -18 -17 -17 -17 -17 -17 -17 -17 -17 -17 -18 -18 -18 -17 -17 -17 -17 -18 -18 -18 -18 -17 -18 -18 -17 -18 -18 -18 -18 -17
-20 -20 -20 -20 -20 -20 -20 -20 -20 -19 -19 -19 -19 -19 -18 -18 -18 -18 -17 -17 -18 -18 -17 -17 -17 -17 -17 -18 -18 -18 -18 -17 -17 -17 -17 -17 -18 -18 -17 -18 -17 -18 -18 -18 -18 -18 -18
-20 -20 -20 -20 -20 -20 -20 -20 -20 -20 -20 -19 -19 -19 -19 -18 -18 -18 -18 -17 -17 -17 -18 -18 -18 -18 -18 -18 -18 -18 -18 -18 -17 -17 -17 -18 -18 -18 -18 -18 -17 -18 -18 -18 -18 -18 -18
-20 -20 -19 -19 -19 -19 -19 -19 -20 -20 -19 -19 -19 -19 -19 -19 -18 -18 -18 -18 -18 -18 -18 -18 -18 -19 -19 -19 -18 -18 -18 -18 -18 -17 -18 -18 -18 -18 -18 -18 -17 -18 -18 -18 -18 -18 -18
-20 -20 -20 -20 -19 -19 -19 -19 -19 -19 -19 -19 -20 -20 -20 -19 -18 -18 -17 -17 -18 -17 -17 -17 -19 -19 -20 -20 -19 -19 -18 -18 -18 -18 -18 -18 -18 -18 -19 -19 -17 -18 -19 -19 -19 -19 -19
-20 -20 -19 -19 -19 -19 -19 -19 -20 -21 -21 -20 -20 -21 -20 -19 -18 -19 -19 -19 -18 -19 -19 -19 -20 -19 -19 -20 -20 -20 -19 -19 -19 -19 -18 -19 -19 -19 -20 -19 -17 -19 -20 -20 -20 -19 -19
-20 -20 -20 -20 -20 -21 -21 -22 -22 -22 -22 -21 -21 -21 -21 -20 -18 -19 -19 -20 -21 -21 -20 -20 -19 -19 -21 -21 -21 -21 -20 -20 -19 -19 -19 -19 -19 -20 -20 -20 -20 -20 -20 -20 -20 -20 -19
Height
5840 5840 5841 5841 5840 5840 5840 5839 5839 5838 5837 5836 5835 5834 5832 5831 5830 5827 5826 5824 5822 5819 5816 5813 5810 5807 5804 5800 5795 5789 5784 5778 5772 5765 5758 5751 5743 5735 5724 5716 5709 5702 5696 5691 5687 5684 5681
5839 5839 5839 5840 5839 5839 5838 5837 5837 5836 5835 5834 5833 5832 5830 5829 5827 5825 5823 5821 5819 5816 5813 5810 5807 5804 5800 5797 5792 5787 5783 5777 5770 5764 5757 5750 5742 5732 5723 5715 5707 5699 5693 5689 5685 5682 5678
5837 5837 5837 5837 5837 5837 5836 5835 5834 5834 5833 5831 5831 5829 5828 5826 5824 5823 5821 5819 5816 5814 5811 5807 5804 5801 5797 5794 5789 5785 5779 5773 5768 5762 5756 5749 5740 5731 5722 5715 5707 5700 5693 5687 5683 5679 5676
5834 5835 5835 5834 5834 5834 5834 5833 5832 5831 5830 5829 5828 5827 5825 5824 5822 5820 5818 5816 5814 5811 5808 5805 5801 5799 5795 5791 5787 5783 5777 5771 5766 5761 5754 5746 5739 5733 5726 5717 5708 5700 5693 5688 5681 5678 5674
5831 5832 5832 5831 5831 5831 5831 5830 5830 5829 5827 5827 5825 5824 5823 5821 5819 5818 5815 5813 5810 5808 5805 5802 5799 5796 5793 5789 5784 5780 5776 5771 5765 5758 5752 5745 5739 5733 5726 5719 5710 5701 5693 5686 5682 5676 5672
5827 5828 5828 5828 5828 5827 5827 5827 5827 5825 5824 5823 5822 5821 5820 5818 5817 5815 5812 5810 5807 5805 5803 5800 5797 5796 5791 5787 5782 5777 5773 5768 5763 5757 5752 5746 5740 5732 5724 5716 5708 5699 5693 5686 5679 5676 5670
5823 5823 5824 5823 5823 5824 5823 5823 5823 5822 5821 5820 5819 5818 5817 5815 5814 5812 5810 5807 5807 5804 5800 5798 5795 5792 5788 5785 5782 5777 5771 5765 5760 5757 5751 5746 5739 5731 5723 5715 5708 5700 5693 5686 5679 5672 5668
5818 5818 5818 5819 5818 5819 5819 5819 5818 5818 5817 5816 5815 5814 5813 5812 5811 5809 5807 5804 5802 5801 5798 5795 5792 5789 5787 5783 5779 5775 5770 5765 5760 5754 5749 5744 5738 5731 5723 5716 5707 5701 5694 5687 5680 5673 5669
5812 5811 5812 5812 5812 5813 5813 5813 5813 5813 5812 5812 5810 5809 5809 5808 5807 5806 5804 5803 5800 5798 5796 5793 5791 5787 5785 5782 5777 5773 5769 5764 5759 5753 5748 5742 5737 5730 5724 5718 5712 5703 5696 5687 5681 5674 5669
5803 5803 5804 5805 5805 5806 5807 5807 5807 5807 5806 5806 5805 5804 5804 5803 5804 5801 5800 5799 5797 5795 5793 5792 5788 5785 5782 5779 5776 5771 5766 5763 5756 5751 5746 5741 5736 5729 5724 5717 5711 5705 5697 5689 5682 5677 5671
5795 5795 5796 5798 5799 5799 5800 5801 5801 5801 5801 5801 5800 5799 5798 5798 5797 5797 5796 5794 5793 5791 5790 5788 5785 5781 5778 5776 5773 5768 5765 5761 5755 5749 5744 5740 5734 5728 5722 5718 5712 5706 5698 5692 5686 5680 5673
5790 5790 5790 5790 5791 5792 5793 5794 5794 5794 5794 5794 5794 5793 5793 5792 5792 5791 5789 5789 5788 5788 5785 5783 5780 5778 5775 5771 5768 5765 5762 5759 5756 5751 5744 5739 5733 5728 5722 5716 5712 5707 5701 5695 5689 5683 5677
5786 5785 5784 5783 5783 5783 5784 5784 5786 5786 5787 5787 5786 5786 5786 5786 5785 5784 5783 5783 5783 5781 5779 5778 5775 5773 5771 5768 5765 5762 5759 5755 5752 5750 5745 5739 5733 5727 5722 5717 5711 5706 5703 5698 5692 5684 5680
5780 5779 5777 5776 5776 5776 5776 5777 5778 5778 5779 5780 5779 5779 5778 5778 5777 5777 5776 5776 5775 5775 5772 5771 5769 5767 5766 5763 5761 5758 5754 5751 5747 5744 5741 5736 5728 5724 5720 5714 5708 5703 5699 5695 5689 5686 5683
5771 5772 5771 5770 5768 5768 5768 5768 5769 5770 5769 5770 5770 5771 5771 5770 5770 5769 5769 5768 5768 5768 5766 5764 5763 5761 5760 5757 5755 5753 5750 5746 5743 5739 5736 5731 5727 5722 5717 5712 5708 5702 5699 5695 5692 5688 5684
5765 5764 5763 5763 5762 5762 5761 5760 5760 5760 5760 5760 5761 5762 5763 5761 5761 5761 5760 5761 5761 5760 5757 5756 5755 5754 5752 5751 5749 5746 5744 5741 5738 5735 5731 5729 5727 5720 5716 5712 5706 5702 5698 5694 5691 5687 5684
5756 5756 5756 5755 5753 5752 5753 5752 5752 5751 5752 5752 5753 5753 5754 5753 5752 5751 5750 5752 5752 5751 5749 5747 5746 5745 5745 5743 5741 5739 5738 5735 5732 5729 5726 5723 5721 5719 5712 5708 5705 5700 5696 5692 5689 5686 5682
5746 5745 5745 5745 5745 5745 5744 5743 5743 5743 5744 5743 5743 5744 5744 5744 5744 5741 5742 5742 5742 5740 5740 5738 5737 5737 5737 5735 5732 5731 5730 5729 5725 5722 5720 5718 5714 5713 5710 5706 5702 5696 5691 5690 5686 5685 5680
5733 5733 5733 5732 5733 5733 5733 5733 5733 5732 5733 5734 5733 5734 5734 5733 5732 5733 5732 5731 5730 5729 5730 5729 5728 5728 5728 5727 5724 5721 5721 5722 5718 5716 5713 5711 5708 5704 5705 5702 5698 5694 5688 5684 5683 5681 5679
5717 5717 5718 5718 5719 5719 5719 5720 5720 5719 5720 5722 5722 5721 5721 5721 5720 5721 5721 5721 5719 5719 5719 5720 5719 5718 5717 5716 5715 5711 5713 5712 5709 5708 5705 5702 5702 5700 5699 5695 5691 5691 5687 5681 5677 5676 5674
5702 5702 5702 5703 5703 5704 5704 5705 5705 5705 5706 5706 5706 5706 5706 5706 5707 5707 5706 5708 5707 5708 5708 5707 5708 5708 5707 5705 5703 5703 5704 5701 5700 5700 5698 5695 5693 5693 5693 5690 5686 5684 5682 5679 5673 5669 5668
5687 5687 5687 5688 5688 5688 5688 5688 5688 5688 5688 5688 5688 5690 5690 5691 5691 5692 5692 5695 5695 5694 5694 5695 5694 5695 5693 5693 5692 5693 5692 5690 5689 5689 5687 5687 5684 5683 5684 5683 5679 5679 5676 5672 5670 5665 5661
5676 5675 5674 5674 5672 5672 5671 5672 5674 5674 5674 5674 5675 5675 5676 5679 5679 5679 5680 5680 5680 5680 5682 5681 5679 5679 5680 5682 5679 5679 5678 5679 5678 5677 5676 5676 5676 5674 5672 5674 5671 5671 5670 5665 5663 5661 5657
5666 5665 5664 5663 5661 5661 5661 5660 5661 5661 5662 5663 5663 5664 5664 5666 5666 5667 5666 5666 5667 5667 5667 5667 5665 5665 5667 5664 5664 5665 5665 5665 5665 5665 5665 5664 5665 5663 5662 5664 5659 5663 5662 5658 5655 5654 5650
5656 5654 5653 5652 5651 5649 5648 5648 5647 5647 5648 5649 5649 5650 5650 5651 5652 5653 5650 5649 5650 5652 5653 5653 5653 5651 5649 5649 5649 5647 5650 5650 5650 5652 5652 5652 5653 5651 5649 5650 5650 5652 5651 5650 5647 5648 5643
5644 5642 5640 5639 5637 5636 5635 5633 5634 5633 5632 5632 5632 5633 5634 5635 5638 5635 5635 5635 5634 5633 5634 5634 5633 5635 5633 5631 5630 5631 5631 5634 5634 5636 5640 5640 5639 5639 5636 5637 5636 5639 5641 5639 5636 5637 5635
5629 5628 5626 5625 5623 5621 5619 5617 5616 5615 5616 5616 5615 5613 5614 5615 5619 5618 5617 5615 5611 5612 5614 5615 5616 5617 5614 5614 5612 5612 5613 5617 5618 5621 5623 5623 5623 5623 5625 5622 5625 5629 5631 5629 5627 5629 5625
5614 5612 5609 5607 5604 5602 5600 5598 5595 5594 5593 5593 5593 5590 5592 5595 5600 5598 5597 5594 5591 5588 5590 5594 5594 5595 5595 5591 5593 5595 5595 5598 5599 5606 5607 5606 5606 5607 5608 5611 5613 5621 5615 5617 5617 5614 5614
5597 5594 5591 5588 5585 5582 5580 5577 5574 5572 5571 5568 5572 5567 5565 5571 5581 5579 5579 5571 5570 5564 5562 5567 5571 5575 5571 5570 5572 5573 5576 5580 5583 5583 5590 5586 5594 5595 5594 5598 5602 5601 5603 5605 5604 5604 5603
Wind_Speed
8 9 11 11 9 7 8 8 8 9 9 10 11 13 14 15 15 15 15 15 16 17 19 19 21 21 23 25 27 28 31 32 33 35 37 40 41 40 37 32 26 28 23 20 16 18 17
10 10 12 13 12 10 10 10 11 11 11 11 11 13 14 14 15 16 16 16 17 18 19 20 21 22 22 24 26 28 29 30 32 34 35 37 40 42 39 34 27 31 25 18 15 17 18
12 12 13 14 14 13 12 12 12 12 12 12 12 13 14 14 15 15 16 17 17 19 19 20 21 21 22 23 25 27 30 31 32 34 35 36 39 41 42 35 30 30 27 26 20 18 18
14 15 14 15 15 15 15 14 13 13 12 12 12 13 14 15 15 16 17 17 17 18 17 18 19 20 21 22 23 26 28 29 31 33 35 38 38 38 37 36 30 29 28 23 23 17 16
17 17 17 17 17 17 17 15 14 14 13 13 13 13 14 15 15 15 16 16 16 17 17 17 18 18 19 20 21 24 26 27 29 31 35 36 36 36 38 37 35 31 30 29 23 19 20
20 21 20 20 19 18 18 18 16 15 15 14 14 13 14 13 14 14 13 15 15 17 17 17 16 16 18 20 22 23 25 28 29 30 32 33 33 35 37 40 41 38 34 31 28 22 18
24 24 25 23 22 20 19 19 18 17 16 15 15 14 13 12 12 12 13 13 15 16 15 16 16 17 19 20 20 23 25 28 29 29 29 30 31 34 35 37 40 39 35 33 29 27 24
31 31 29 28 25 23 21 19 19 18 17 16 16 15 14 13 12 12 12 12 13 14 15 15 14 16 18 20 23 25 28 28 29 29 29 31 30 31 33 34 37 39 37 34 27 26 27
37 33 35 34 30 28 25 21 20 19 18 19 18 17 17 16 15 14 13 13 13 14 15 15 15 16 18 21 23 26 29 29 29 29 30 30 30 31 31 30 30 34 37 35 32 27 26
37 37 39 37 34 32 30 26 23 22 21 21 20 20 20 19 18 16 15 15 14 14 16 15 15 17 19 22 24 27 28 31 31 31 32 31 29 29 30 31 32 32 34 33 31 26 24
30 32 35 40 39 37 34 31 29 25 25 24 24 22 22 22 21 20 18 18 18 17 18 17 17 19 20 22 25 26 29 30 30 33 35 33 32 29 30 29 29 31 31 30 28 23 24
26 26 34 37 43 40 40 34 32 27 29 29 27 27 26 26 25 24 23 21 20 18 20 20 21 20 20 22 24 26 28 29 27 28 32 32 32 32 29 29 28 27 27 27 26 23 23
22 24 24 29 34 42 42 42 35 41 31 31 30 27 28 29 29 28 27 25 24 21 23 24 23 23 22 22 23 26 28 29 29 26 28 32 33 33 33 30 28 26 24 24 24 25 24
27 27 26 26 28 31 39 41 38 36 39 35 32 30 31 28 30 30 29 28 29 26 27 28 28 27 25 26 25 27 29 29 29 28 30 32 35 33 34 35 33 29 26 27 27 23 20
27 27 27 32 31 29 33 36 40 44 43 39 43 35 38 42 32 28 29 30 30 29 30 31 31 32 29 29 31 30 29 29 30 32 32 34 31 31 34 35 32 30 27 25 21 21 20
28 29 27 26 28 30 28 27 28 30 35 36 36 39 30 32 36 41 37 33 32 32 35 37 34 33 33 32 33 32 31 31 30 31 34 32 27 31 35 31 30 28 28 26 20 20 20
32 33 33 33 30 29 27 28 30 30 29 31 31 32 39 40 42 36 40 40 39 38 39 38 35 36 34 36 34 33 31 30 31 32 32 32 29 30 35 33 29 28 25 24 23 20 18
39 39 39 38 38 36 34 32 30 29 30 32 30 33 36 39 40 38 36 38 38 41 41 41 41 39 39 35 33 33 32 33 36 36 34 35 36 32 32 33 28 27 28 24 23 22 21
48 45 44 43 44 43 41 39 38 38 36 36 41 42 41 39 40 41 41 41 42 40 42 40 40 39 38 39 39 37 36 35 37 36 39 39 35 36 32 30 29 25 28 27 23 19 18
55 54 51 50 48 48 47 48 47 47 46 46 46 48 50 47 46 45 42 41 40 41 42 42 42 43 44 42 42 44 40 39 39 37 38 37 34 32 31 32 33 28 25 27 26 23 22
57 56 56 56 53 53 52 50 51 55 55 55 56 55 54 53 51 50 49 47 47 45 43 43 43 43 46 45 46 44 43 44 43 41 38 39 37 36 32 32 32 27 27 25 26 27 23
46 44 46 50 52 51 50 52 53 55 58 58 58 54 53 52 51 52 51 49 49 50 49 47 47 45 46 46 47 46 47 47 45 44 44 44 43 39 35 33 34 28 27 27 25 25 25
37 35 35 37 38 39 42 44 47 44 44 45 41 39 37 36 39 40 41 43 43 44 44 46 48 48 49 46 48 48 49 48 48 48 48 47 45 44 41 35 35 29 27 29 27 26 27
39 39 39 40 41 42 44 44 43 43 44 46 47 48 48 46 47 47 47 49 48 49 51 49 50 51 50 51 50 51 51 52 53 53 51 50 49 48 47 41 41 34 29 31 29 26 28
44 44 45 46 45 45 46 46 47 48 48 49 50 51 52 51 52 52 55 55 53 52 52 52 53 54 55 56 56 56 54 55 55 56 55 52 51 52 52 49 45 39 36 34 34 27 28
44 44 45 48 49 49 50 52 53 55 55 56 58 60 60 57 55 57 57 57 56 55 55 54 52 52 56 59 61 60 59 56 57 57 55 55 55 55 55 52 51 46 42 40 40 34 29
47 48 49 51 53 55 56 57 58 59 59 60 60 61 62 63 61 63 64 64 65 65 64 63 57 57 59 60 63 66 65 61 60 58 57 57 57 57 55 55 54 47 41 44 45 42 37
57 59 61 62 61 62 63 62 62 63 64 65 65 66 68 69 67 69 69 71 72 72 71 68 67 67 66 65 64 64 66 65 64 60 59 58 55 56 55 56 58 45 46 44 43 43 42
61 63 64 64 64 64 65 66 68 70 70 72 72 75 76 75 74 73 73 73 71 75 77 75 75 72 67 68 68 65 64 64 64 65 59 62 57 53 54 52 50 52 49 44 45 44 44
Wind_Direction
254 257 261 263 268 278 286 289 293 299 306 309 309 305 300 297 293 292 297 302 307 312 317 323 326 329 332 335 338 343 344 350 356 1 7 9 7 3 357 351 348 345 337 336 327 322 302
255 263 264 267 271 277 281 283 289 295 300 303 304 304 303 301 299 298 300 303 308 311 315 322 325 328 333 335 338 342 345 351 357 1 8 10 10 8 6 360 359 1 352 348 335 328 324
263 266 269 269 272 277 279 282 286 293 298 304 308 309 308 306 305 304 305 309 311 313 318 324 325 327 333 338 340 343 345 351 360 1 6 10 13 11 10 7 5 3 4 346 340 333 326
259 266 269 269 270 274 277 281 286 290 297 301 302 305 308 309 309 309 311 314 316 315 316 322 324 327 331 337 341 342 349 355 358 1 3 6 11 12 11 12 9 7 2 357 340 342 332
260 264 267 270 270 269 272 277 284 289 294 297 297 300 304 307 309 312 316 316 320 318 317 321 324 329 334 339 343 347 351 352 355 1 3 5 7 5 9 13 11 11 7 356 352 330 330
257 261 264 267 271 271 269 270 276 281 287 290 291 294 301 306 310 312 315 317 321 321 319 323 326 331 336 338 341 343 346 352 355 358 2 3 3 4 5 6 10 9 4 1 357 351 323
254 257 262 262 266 271 271 271 273 278 281 282 284 288 292 300 305 313 317 323 326 326 327 326 328 332 337 342 344 348 352 353 352 354 355 360 1 4 4 5 4 9 2 3 357 355 350
264 253 256 259 261 264 267 269 268 269 273 273 276 279 283 288 295 303 311 317 321 326 330 328 330 335 338 343 345 350 355 355 351 351 355 354 358 3 3 3 2 7 3 3 1 2 2
265 268 251 254 255 259 262 264 264 264 265 266 267 270 274 278 284 290 296 304 313 320 326 326 327 331 333 338 341 346 350 352 353 349 353 352 353 356 5 2 3 3 5 6 9 6 4
273 265 254 251 251 253 256 259 259 261 262 263 265 267 269 273 277 280 285 290 297 303 307 313 317 319 325 333 335 341 349 350 350 354 355 354 353 353 356 5 2 3 9 9 12 11 17
269 260 256 254 252 251 253 257 259 261 263 265 267 268 272 271 271 277 278 283 286 291 296 296 305 313 320 326 332 339 341 345 349 349 352 356 356 353 350 357 4 3 8 11 13 15 18
289 284 262 257 254 250 250 251 255 261 267 267 267 270 271 273 273 271 273 275 279 283 290 288 295 301 311 319 324 328 334 338 344 346 341 351 354 360 354 348 357 3 3 9 15 16 17
282 283 283 270 266 259 253 253 257 256 260 266 266 268 272 273 274 274 273 273 272 276 281 285 287 293 300 304 309 316 322 327 333 338 340 340 346 350 353 353 350 355 1 4 16 16 14
283 281 283 281 278 270 264 251 251 258 254 265 263 266 269 275 273 273 274 273 273 273 277 281 285 288 293 297 299 305 311 317 322 325 329 338 338 344 347 350 352 350 355 359 1 9 12
288 289 284 282 279 273 270 263 258 260 263 258 254 266 267 269 272 271 272 269 276 272 276 280 283 282 286 291 295 300 304 310 314 318 326 333 338 341 343 346 348 346 346 347 353 354 2
276 279 281 278 277 276 272 272 271 272 259 260 261 255 261 268 272 267 268 271 275 276 279 282 281 282 286 289 290 293 297 302 307 315 318 323 330 332 342 344 342 343 340 340 339 349 354
272 274 276 278 276 273 274 273 268 268 274 276 272 271 259 262 270 272 268 269 272 271 273 275 276 280 284 290 291 291 293 296 301 307 311 316 319 325 333 335 338 335 335 337 332 331 340
268 268 271 272 271 271 271 268 268 268 268 269 272 271 272 269 267 268 271 273 275 269 267 274 275 279 282 284 290 283 287 291 297 299 303 308 309 315 322 327 333 330 333 332 330 327 316
268 266 263 264 265 267 266 264 266 269 267 269 274 277 279 274 270 268 269 267 267 265 262 270 271 272 275 278 282 284 282 285 288 292 297 302 303 312 316 321 325 336 326 325 322 321 312
270 266 263 262 260 261 262 266 264 265 266 266 271 279 277 274 270 268 266 267 266 267 266 266 266 270 272 273 274 277 282 283 282 285 288 290 298 304 314 318 316 322 328 317 318 314 305
270 268 269 268 267 265 265 264 266 270 272 271 273 272 273 269 265 264 265 267 267 267 267 267 267 267 269 270 271 273 276 279 280 284 283 287 290 293 298 302 306 308 315 313 311 307 307
270 270 267 267 269 268 268 273 275 274 272 271 270 267 266 262 262 265 265 266 268 269 269 269 269 267 264 266 269 271 272 272 273 275 277 280 285 287 289 294 296 295 302 306 307 303 303
273 273 274 274 273 273 275 272 268 267 267 270 272 271 267 265 265 265 265 266 266 267 267 268 270 270 268 268 265 265 268 271 273 274 275 276 277 281 282 286 284 288 291 297 302 305 302
275 276 275 274 274 273 274 273 271 268 267 268 268 266 266 265 264 264 264 265 267 269 272 270 270 271 272 268 265 265 266 267 269 271 272 275 276 276 279 279 277 287 289 289 293 299 297
280 278 276 276 274 271 269 268 268 269 269 268 268 268 270 270 269 269 268 269 271 272 272 268 268 270 268 268 268 265 263 263 265 269 271 272 275 277 277 278 279 278 284 285 284 288 292
275 278 279 278 277 276 276 274 272 272 271 271 270 268 265 266 268 273 271 269 268 270 271 273 270 267 267 265 263 263 262 263 262 264 267 270 271 272 275 277 279 282 282 281 281 283 284
281 280 280 281 281 280 278 276 274 272 270 270 271 272 273 274 275 275 276 277 276 274 272 271 271 269 266 263 264 264 264 263 261 263 264 265 265 268 269 270 272 276 281 280 280 285 285
281 280 278 278 277 277 276 277 278 277 276 275 275 275 274 275 276 276 276 276 274 274 274 273 271 270 269 265 264 263 264 265 262 260 260 262 263 263 265 269 273 276 271 276 278 280 284
278 276 276 276 276 277 278 279 278 277 277 275 274 274 273 271 270 269 271 272 272 272 271 269 269 268 265 265 266 264 263 261 262 261 259 258 264 267 264 265 267 271 277 276 276 278 280